�������l�o���
Date,Time,MP-1(��Sv/h),MP-2(��Sv/h),MP-3(��Sv/h),MP-4(��Sv/h),MP-5(��Sv/h),MP-6(��Sv/h),MP-7(��Sv/h),����,����(m/s),���J
2017/02/11,00:00,0.384,0.229,0.392,0.361,0.332,0.189,0.160,�k��,2.5,��
2017/02/11,00:10,0.385,0.228,0.392,0.361,0.331,0.189,0.159,�k��,5.1,��
2017/02/11,00:20,0.382,0.228,0.392,0.361,0.332,0.188,0.160,�k�k��,5.4,��
2017/02/11,00:30,0.384,0.227,0.392,0.362,0.332,0.188,0.159,�k,4.3,��
2017/02/11,00:40,0.386,0.228,0.392,0.362,0.333,0.188,0.160,�k,3.4,��
2017/02/11,00:50,0.382,0.228,0.393,0.361,0.334,0.189,0.161,�k�k��,5.1,��
2017/02/11,01:00,0.383,0.226,0.392,0.362,0.333,0.188,0.160,�k�k��,7.8,��
2017/02/11,01:10,0.384,0.229,0.393,0.362,0.331,0.189,0.160,�k�k��,4.3,��
2017/02/11,01:20,0.386,0.227,0.392,0.362,0.333,0.189,0.159,�k,7.3,��
2017/02/11,01:30,0.384,0.227,0.393,0.361,0.332,0.188,0.159,�k,5.3,��
2017/02/11,01:40,0.385,0.228,0.393,0.361,0.332,0.188,0.161,�k�k��,5.2,��
2017/02/11,01:50,0.385,0.227,0.392,0.363,0.331,0.189,0.160,�k�k��,2.9,��
2017/02/11,02:00,0.385,0.229,0.393,0.363,0.332,0.190,0.160,�k,5.6,��
2017/02/11,02:10,0.383,0.229,0.393,0.361,0.333,0.189,0.160,�k,6.6,��
2017/02/11,02:20,0.385,0.227,0.393,0.361,0.332,0.189,0.159,�k,5.8,��
2017/02/11,02:30,0.384,0.228,0.394,0.361,0.333,0.188,0.159,�k,5.6,��
2017/02/11,02:40,0.385,0.227,0.394,0.362,0.332,0.190,0.159,�k,3.4,��
2017/02/11,02:50,0.384,0.229,0.393,0.362,0.332,0.189,0.160,�k�k��,3.6,��
2017/02/11,03:00,0.384,0.227,0.393,0.362,0.332,0.189,0.160,�k�k��,3.6,��
2017/02/11,03:10,0.385,0.228,0.393,0.363,0.333,0.189,0.160,�k�k��,1.9,��
2017/02/11,03:20,0.383,0.227,0.393,0.363,0.332,0.189,0.160,�k��,1.6,��
2017/02/11,03:30,0.385,0.228,0.394,0.362,0.333,0.189,0.160,���쐼,0.8,��
2017/02/11,03:40,0.384,0.227,0.393,0.363,0.330,0.189,0.160,�k�k��,2.2,��
2017/02/11,03:50,0.385,0.228,0.391,0.361,0.331,0.189,0.160,�k�k��,2.1,��
2017/02/11,04:00,0.384,0.228,0.392,0.363,0.332,0.189,0.159,�k,4.5,��
2017/02/11,04:10,0.384,0.228,0.392,0.361,0.331,0.188,0.159,�k,4.0,��
2017/02/11,04:20,0.384,0.226,0.393,0.361,0.332,0.188,0.160,�k,3.8,��
2017/02/11,04:30,0.385,0.228,0.392,0.362,0.333,0.189,0.160,�k,3.7,��
2017/02/11,04:40,0.385,0.227,0.392,0.362,0.331,0.189,0.159,�k,5.0,��
2017/02/11,04:50,0.384,0.227,0.392,0.362,0.331,0.188,0.159,�k,4.0,��
2017/02/11,05:00,0.383,0.228,0.392,0.360,0.331,0.189,0.160,�k,3.5,��
2017/02/11,05:10,0.383,0.226,0.393,0.361,0.331,0.190,0.160,�k,2.2,��
2017/02/11,05:20,0.384,0.229,0.392,0.362,0.333,0.189,0.160,�k�k��,2.8,��
2017/02/11,05:30,0.384,0.227,0.393,0.361,0.332,0.189,0.160,-,CALM,��
2017/02/11,05:40,0.385,0.228,0.394,0.361,0.330,0.189,0.160,��,1.7,��
2017/02/11,05:50,0.385,0.227,0.392,0.363,0.331,0.187,0.160,���k��,6.7,��
2017/02/11,06:00,0.383,0.228,0.392,0.362,0.330,0.189,0.159,��,5.8,��
2017/02/11,06:10,0.384,0.227,0.393,0.362,0.332,0.188,0.160,���k��,5.4,��
2017/02/11,06:20,0.384,0.225,0.394,0.363,0.331,0.189,0.159,���k��,5.6,��
2017/02/11,06:30,0.384,0.227,0.393,0.361,0.333,0.189,0.160,���k��,3.9,��
2017/02/11,06:40,0.385,0.227,0.391,0.361,0.333,0.188,0.160,�k��,2.6,��
2017/02/11,06:50,0.384,0.228,0.393,0.362,0.332,0.189,0.160,�k�k��,1.4,��
2017/02/11,07:00,0.383,0.228,0.392,0.362,0.331,0.189,0.160,��,2.5,��
2017/02/11,07:10,0.385,0.228,0.392,0.362,0.330,0.189,0.159,�k��,3.9,��
2017/02/11,07:20,0.385,0.226,0.394,0.360,0.332,0.188,0.160,��,4.9,��
2017/02/11,07:30,0.385,0.226,0.391,0.360,0.331,0.188,0.159,���쐼,4.9,��
2017/02/11,07:40,0.385,0.226,0.392,0.361,0.332,0.188,0.160,���쐼,5.0,��
2017/02/11,07:50,0.383,0.226,0.393,0.361,0.331,0.189,0.160,��,7.4,��
2017/02/11,08:00,0.384,0.227,0.393,0.359,0.332,0.188,0.159,��,5.7,��
2017/02/11,08:10,0.384,0.226,0.392,0.360,0.331,0.189,0.159,��,4.5,��
2017/02/11,08:20,0.384,0.225,0.392,0.361,0.332,0.188,0.159,���쐼,4.8,��
2017/02/11,08:30,0.384,0.226,0.392,0.362,0.332,0.188,0.160,��,5.3,��
2017/02/11,08:40,0.384,0.228,0.392,0.360,0.331,0.189,0.161,��,3.7,��
2017/02/11,08:50,0.386,0.227,0.394,0.362,0.332,0.188,0.161,��,5.1,��
2017/02/11,09:00,0.384,0.228,0.393,0.362,0.331,0.188,0.160,��,7.5,��
2017/02/11,09:10,0.383,0.226,0.392,0.362,0.332,0.189,0.160,��,6.9,��
2017/02/11,09:20,0.384,0.226,0.393,0.362,0.332,0.189,0.160,��,5.1,��
2017/02/11,09:30,0.384,0.226,0.394,0.361,0.332,0.189,0.160,���쐼,7.1,��
2017/02/11,09:40,0.385,0.226,0.393,0.361,0.333,0.188,0.160,���쐼,9.3,��
2017/02/11,09:50,0.382,0.227,0.393,0.362,0.332,0.188,0.160,��,10.0,��
2017/02/11,10:00,0.381,0.227,0.392,0.362,0.333,0.188,0.161,��,11.2,��
2017/02/11,10:10,0.385,0.226,0.394,0.362,0.333,0.189,0.161,��,9.2,��
2017/02/11,10:20,0.381,0.226,0.392,0.363,0.333,0.190,0.161,��,7.2,��
2017/02/11,10:30,0.383,0.227,0.393,0.361,0.333,0.189,0.160,��,6.9,��
2017/02/11,10:40,0.383,0.228,0.393,0.364,0.335,0.189,0.161,��,10.3,��
2017/02/11,10:50,0.381,0.227,0.395,0.363,0.331,0.189,0.161,���쐼,8.5,��
2017/02/11,11:00,0.382,0.227,0.394,0.361,0.331,0.189,0.160,��,10.3,��
2017/02/11,11:10,0.384,0.228,0.393,0.363,0.334,0.190,0.161,���쐼,10.9,��
2017/02/11,11:20,0.383,0.228,0.391,0.362,0.333,0.190,0.160,���쐼,12.7,��
2017/02/11,11:30,0.384,0.227,0.394,0.363,0.333,0.190,0.160,���쐼,9.5,��
2017/02/11,11:40,0.384,0.229,0.390,0.362,0.334,0.189,0.161,��,9.4,��
2017/02/11,11:50,0.383,0.227,0.394,0.362,0.332,0.190,0.162,��,8.7,��
2017/02/11,12:00,0.386,0.228,0.393,0.364,0.334,0.189,0.160,��,9.7,��
2017/02/11,12:10,0.382,0.228,0.390,0.362,0.333,0.190,0.160,��,9.3,��
2017/02/11,12:20,0.383,0.227,0.394,0.364,0.333,0.190,0.161,��,8.3,��
2017/02/11,12:30,0.385,0.228,0.392,0.363,0.333,0.190,0.160,��,7.5,��
2017/02/11,12:40,0.383,0.228,0.395,0.365,0.333,0.190,0.160,��,9.1,��
2017/02/11,12:50,0.385,0.229,0.393,0.361,0.332,0.189,0.160,��,7.5,��
2017/02/11,13:00,0.384,0.229,0.393,0.365,0.334,0.189,0.161,��,3.4,��
2017/02/11,13:10,0.383,0.229,0.394,0.362,0.333,0.191,0.161,���k��,5.8,��
2017/02/11,13:20,0.386,0.228,0.391,0.363,0.333,0.189,0.161,���k��,8.5,��
2017/02/11,13:30,0.386,0.226,0.394,0.363,0.333,0.190,0.161,���k��,7.5,��
2017/02/11,13:40,0.384,0.229,0.392,0.364,0.333,0.189,0.161,��,11.5,��
2017/02/11,13:50,0.387,0.229,0.392,0.365,0.332,0.190,0.161,���쐼,9.3,��
2017/02/11,14:00,0.387,0.228,0.394,0.364,0.333,0.190,0.162,��,7.0,��
2017/02/11,14:10,0.386,0.229,0.393,0.366,0.334,0.191,0.161,��,8.5,��
2017/02/11,14:20,0.388,0.230,0.394,0.364,0.333,0.190,0.162,���k��,7.3,��
2017/02/11,14:30,0.385,0.228,0.395,0.366,0.335,0.190,0.163,���k��,5.6,��
2017/02/11,14:40,0.385,0.227,0.395,0.364,0.335,0.190,0.162,���k��,9.6,��
2017/02/11,14:50,0.386,0.228,0.396,0.365,0.336,0.190,0.162,��,10.9,��
2017/02/11,15:00,0.388,0.229,0.397,0.367,0.335,0.190,0.162,��,6.8,��
2017/02/11,15:10,0.386,0.229,0.394,0.367,0.333,0.191,0.162,��,8.6,��
2017/02/11,15:20,0.386,0.228,0.395,0.366,0.335,0.190,0.162,���쐼,16.2,��
2017/02/11,15:30,0.388,0.229,0.396,0.367,0.337,0.191,0.162,��,10.1,��
2017/02/11,15:40,0.387,0.230,0.396,0.367,0.335,0.190,0.161,���쐼,8.3,��
2017/02/11,15:50,0.387,0.230,0.395,0.365,0.334,0.192,0.163,���쐼,8.8,��
2017/02/11,16:00,0.387,0.230,0.396,0.365,0.334,0.191,0.161,���k��,6.5,��
2017/02/11,16:10,0.389,0.228,0.397,0.364,0.334,0.191,0.161,���쐼,9.0,��
2017/02/11,16:20,0.387,0.229,0.394,0.366,0.334,0.191,0.162,��,11.0,��
2017/02/11,16:30,0.387,0.230,0.397,0.364,0.334,0.191,0.162,��,9.3,��
2017/02/11,16:40,0.387,0.229,0.395,0.366,0.335,0.191,0.161,��,6.2,��
2017/02/11,16:50,0.389,0.229,0.396,0.366,0.335,0.191,0.162,��,4.4,��
2017/02/11,17:00,0.387,0.230,0.394,0.365,0.333,0.191,0.162,���k��,3.2,��
2017/02/11,17:10,0.387,0.229,0.395,0.366,0.335,0.192,0.161,���쐼,4.3,��
2017/02/11,17:20,0.387,0.230,0.397,0.366,0.334,0.191,0.161,�쐼,4.2,��
2017/02/11,17:30,0.388,0.229,0.397,0.365,0.334,0.190,0.162,�쐼,4.2,��
2017/02/11,17:40,0.386,0.229,0.395,0.365,0.335,0.190,0.161,�쐼,4.8,��
2017/02/11,17:50,0.387,0.229,0.395,0.364,0.333,0.191,0.162,�쐼,6.5,��
2017/02/11,18:00,0.386,0.228,0.397,0.365,0.333,0.192,0.161,���쐼,7.8,��
2017/02/11,18:10,0.387,0.228,0.396,0.366,0.335,0.192,0.162,��,8.2,��
2017/02/11,18:20,0.386,0.228,0.395,0.366,0.334,0.192,0.163,��,6.7,��
2017/02/11,18:30,0.388,0.228,0.395,0.365,0.334,0.192,0.162,��,9.2,��
2017/02/11,18:40,0.386,0.230,0.396,0.366,0.334,0.192,0.162,��,7.7,��
2017/02/11,18:50,0.387,0.228,0.397,0.367,0.334,0.192,0.162,��,8.7,��
2017/02/11,19:00,0.387,0.229,0.396,0.365,0.335,0.191,0.162,���쐼,7.2,��
2017/02/11,19:10,0.386,0.230,0.395,0.365,0.334,0.191,0.162,�쐼,2.4,��
2017/02/11,19:20,0.388,0.230,0.396,0.366,0.334,0.193,0.162,���쐼,2.8,��
2017/02/11,19:30,0.388,0.229,0.395,0.367,0.335,0.191,0.163,�쐼,0.8,��
2017/02/11,19:40,0.389,0.229,0.396,0.365,0.335,0.191,0.162,���쐼,3.8,��
2017/02/11,19:50,0.388,0.228,0.395,0.364,0.334,0.190,0.161,���쐼,7.3,��
2017/02/11,20:00,0.386,0.229,0.396,0.367,0.334,0.190,0.163,�쐼,3.6,��
2017/02/11,20:10,0.387,0.230,0.396,0.367,0.334,0.191,0.162,�쐼,1.3,��
2017/02/11,20:20,0.388,0.230,0.398,0.366,0.335,0.191,0.162,�쓌,1.8,��
2017/02/11,20:30,0.388,0.229,0.396,0.366,0.333,0.191,0.162,�쓌,2.0,��
2017/02/11,20:40,0.386,0.229,0.395,0.368,0.333,0.192,0.162,�k��,1.5,��
2017/02/11,20:50,0.388,0.229,0.396,0.367,0.335,0.192,0.162,��쓌,0.6,��
2017/02/11,21:00,0.386,0.230,0.397,0.365,0.334,0.191,0.162,-,CALM,��
2017/02/11,21:10,0.387,0.230,0.396,0.366,0.333,0.191,0.163,��,1.3,��
2017/02/11,21:20,0.387,0.228,0.396,0.366,0.333,0.191,0.162,��,1.9,��
2017/02/11,21:30,0.386,0.230,0.398,0.367,0.334,0.191,0.163,���k��,1.0,��
2017/02/11,21:40,0.387,0.229,0.397,0.367,0.335,0.191,0.162,��,2.3,��
2017/02/11,21:50,0.388,0.228,0.396,0.366,0.333,0.190,0.162,�k��,6.2,��
2017/02/11,22:00,0.386,0.228,0.395,0.365,0.335,0.192,0.162,���k��,10.1,��
2017/02/11,22:10,0.387,0.229,0.396,0.365,0.334,0.190,0.162,���k��,9.2,��
2017/02/11,22:20,0.387,0.228,0.398,0.365,0.334,0.191,0.162,���k��,9.5,��
2017/02/11,22:30,0.387,0.229,0.397,0.366,0.334,0.191,0.162,���k��,8.7,��
2017/02/11,22:40,0.387,0.229,0.396,0.367,0.335,0.191,0.162,���k��,5.9,��
2017/02/11,22:50,0.387,0.230,0.395,0.367,0.335,0.191,0.163,���k��,5.0,��
2017/02/11,23:00,0.388,0.229,0.397,0.365,0.333,0.192,0.162,���k��,4.2,��
2017/02/11,23:10,0.389,0.230,0.396,0.366,0.332,0.192,0.162,�k��,4.6,��
2017/02/11,23:20,0.388,0.230,0.396,0.366,0.335,0.191,0.162,���k��,8.9,��
2017/02/11,23:30,0.387,0.229,0.397,0.367,0.335,0.191,0.163,���k��,9.0,��
2017/02/11,23:40,0.386,0.229,0.396,0.366,0.335,0.191,0.161,�k��,6.6,��
2017/02/11,23:50,0.389,0.229,0.397,0.367,0.333,0.192,0.162,�k��,3.9,��
